User: anonymous   Login
Location: Unspecified
(0.0000°N, 0.0000°E)
Time: 16:26:21
(UTC+00:00)
Language:

TABLETSAT AURORA - Orbit

View from above orbital plane
View from above orbital plane
View from above satellite
View from above satellite

Ground track
Ground track

The orbit data is extracted from the following two-line orbital elements,

1 40017U 14033H   21337.18147174  .00000553  00000-0  57334-4 0  9991
2 40017  98.0985 307.5002 0023085 344.4539  15.5984 14.94112227406252
Epoch (UTC): 03 December 2021 04:21:19
Eccentricity: 0.0023085
inclination: 98.0985°
perigee height: 569 km
apogee height: 601 km
right ascension of ascending node: 307.5002°
argument of perigee: 344.4539°
revolutions per day: 14.94112227
mean anomaly at epoch: 15.5984°
orbit number at epoch: 40625

The dashed part of the orbit path shows where the satellite is in the earth's shadow,  

DLR